GRBBeta
1 60237U 24128C   26120.16300868  .00004275  00000-0  29747-3 0  9998
2 60237  61.9921  24.7077 0046692 124.5499 236.0014 15.06246315 99036
Curium One
1 60242U 24128H   26120.16140336  .00008653  00000-0  50475-3 0  9992
2 60242  61.9807  15.7720 0046240 121.0493 239.5154 15.11732947 99192
ROBUSTA-3A
1 60243U 24128J   26120.09989132  .00009048  00000-0  53854-3 0  9993
2 60243  61.9886  18.1988 0047365 118.4538 242.1341 15.10918752 99155
CatSat
1 60246U 24125J   26120.22835337  .00050861  00000-0  78469-3 0  9993
2 60246  97.2137 332.2847 0023134   4.2486 355.8960 15.53679371 99938
HYPERVIEW-1G (RS66S)
1 61772U 24199AP  26120.26797632  .00093030  00000-0  91070-3 0  9996
2 61772  97.2978 357.9466 0009077  96.5096 263.7198 15.65778878127159
AO-123
1 61781U 24199AY  26120.26084829  .00008347  00000-0  24751-3 0  9992
2 61781  97.3071 349.3725 0015711 117.8545 242.4293 15.34961671126571
JINJUSat 1B
1 63210U 25052A   26120.22642150  .00017291  00000-0  56137-3 0  9994
2 63210  97.4060  16.9607 0001350 231.0785 129.0337 15.32008456 62753
NUSHSAT 1
1 63211U 25052B   26120.27601557  .00021636  00000-0  65674-3 0  9990
2 63211  97.4041  17.4251 0000983 234.2181 125.8970 15.34111019 62793
TEVEL2-4
1 63213U 25052D   26119.96794197  .00019605  00000-0  61811-3 0  9991
2 63213  97.3964  16.3300 0000415 326.2066  33.9149 15.32922090 62722
TEVEL2-5
1 63214U 25052E   26120.24454684  .00020069  00000-0  63537-3 0  9992
2 63214  97.3959  16.5675 0000458 316.8242  43.2964 15.32784961 62768
TEVEL2-6
1 63215U 25052F   26120.25571389  .00019960  00000-0  63271-3 0  9999
2 63215  97.3963  16.5637 0000546 315.1850  44.9348 15.32746022 62767
TEVEL2-1
1 63217U 25052H   26120.20375524  .00018873  00000-0  60749-3 0  9998
2 63217  97.3936  16.1905 0001122 346.4501  13.6710 15.32266544 62744
TEVEL2-3
1 63218U 25052J   26120.26526756  .00018849  00000-0  60581-3 0  9997
2 63218  97.3939  16.2684 0001140 345.4037  14.7172 15.32314603 62751
TEVEL2-2
1 63219U 25052K   26120.13897758  .00018750  00000-0  60348-3 0  9999
2 63219  97.3937  16.1273 0001134 348.2801  11.8414 15.32269389 62731
TEVEL2-9
1 63237U 25052AD  26120.25266313  .00017875  00000-0  60908-3 0  9998
2 63237  97.4000  15.7145 0004802 329.3551  30.7408 15.30428497 62696
TEVEL2-7
1 63238U 25052AE  26120.21958078  .00016618  00000-0  57106-3 0  9991
2 63238  97.4003  15.6165 0004923 329.3629  30.7323 15.30168799 62682
TEVEL2-8
1 63239U 25052AF  26120.22729150  .00017029  00000-0  58540-3 0  9990
2 63239  97.4001  15.6027 0004898 330.8661  29.2306 15.30151223 62680
HYDRA-W
1 63490U 25052BL  26113.93882235  .05662091  24406-5  29537-2 0  9997
2 63490  97.3690  18.2798 0008685 203.5899 156.4993 16.20186780 62336
HADES-ICM (SO-125)
1 63492U 25052BN  26120.17329350  .00491395  00000-0  25041-2 0  9994
2 63492  97.3820  23.2455 0004471 153.3500 206.7998 15.80099034 63200
SPIRONE
1 66657U 25274H   26119.74629150  .00002862  00000-0  27803-3 0  9994
2 66657  97.7473  49.7412 0012384 167.9028 192.2491 14.93342579 22994
K-HERO
1 66660U 25274L   26119.69761846  .00002383  00000-0  22984-3 0  9994
2 66660  97.7480  49.8184 0014003 173.6167 186.5233 14.93776114 22997
SNUGLITE-III DURI
1 66661U 25274M   26120.08892308  .00002239  00000-0  21590-3 0  9990
2 66661  97.7479  50.2228 0014674 173.5797 186.5614 14.93837765 23054
SilverSat
1 66909U 98067XV  26113.44966717  .07226154  12288-4  11979-2 0  9998
2 66909  51.6027 190.0749 0007952 333.4666  26.5949 16.32457272 22308
SAKHACUBE-CHOLBON
1 67290U 25313AU  26120.17704318  .00010510  00000-0  43612-3 0  9996
2 67290  97.3952 195.8419 0010285 157.5782 202.5907 15.23988616 18664
RS95S (QMR-KWT-2)
1 67291U 25313AV  26120.20320033  .00015023  00000-0  60321-3 0  9999
2 67291  97.3951 195.9575 0010147 156.6625 203.5076 15.25010223 18672
Ten-Koh2
1 68261U 25241B   26120.19879632  .00006636  00000-0  28971-3 0  9994
2 68261  51.6488 187.9364 0005785 349.7955  10.2904 15.23277988  7591
JACK-002
1 68417U 26067B   26120.14121954  .00007502  00000-0  36384-3 0  9996
2 68417  97.4536  79.3596 0004156  88.8777 271.2933 15.18781641  4656
DISCO 2
1 68431U 26067R   26120.15039202  .00009225  00000-0  45213-3 0  9992
2 68431  97.4573  79.3627 0003602 128.1662 231.9898 15.18354586  4651
HADES-SA (SpinnyONE)
1 68446U 26067AG  26120.17443371  .00020312  00000-0  10160-2 0  9998
2 68446  97.4379  79.2604 0005136 228.4326 131.6468 15.17446217  4640
PARUS-6U1
1 68456U 26067AS  26120.17640497  .00006475  00000-0  33086-3 0  9994
2 68456  97.4520  79.3087 0004360 214.7280 145.3670 15.17006086  4654
SAL-E
1 68458U 26067AU  26120.17646567  .00008803  00000-0  44778-3 0  9997
2 68458  97.4446  79.2810 0004289 226.7442 133.3434 15.17063303  4659
IO-86
1 40931U          25360.30710720  .00000000  00000-0  12800-3 0    00
2 40931   6.0006 332.5373 0012733 338.8432   8.1437 14.79075515    01
LILIUM-4                
1 71922C 26067AC  26089.50133053 -.00014632  00000+0 -74472-3 0    04
2 71922  97.4497  49.1617 0004341   5.9603 355.7042 15.16896692    16
